Regional Weather Roundup
Issued by NWS Upton, NY

Current Version | Previous Version | Graphics & Text | Print | Product List | Glossary Off
Versions: 1 2 3 4 5 6 7 8 9 10 11 12 13 14 15 16 17 18 19 20 21 22 23 24 25 26 27 28 29 30 31 32 33 34 35 36 37 38 39 40 41 42 43 44 45 46 47 48 49 50

000
ASUS41 KOKX 292109
RWROKX

REGIONAL WEATHER ROUNDUP
NATIONAL WEATHER SERVICE NEW YORK NY
500 PM EDT MON MAY 29 2017

NOTE: "FAIR" INDICATES FEW OR NO CLOUDS BELOW 12,000 FEET WITH NO
SIGNIFICANT WEATHER AND/OR OBSTRUCTIONS TO VISIBILITY.

NYZ071-072-176-178-NJZ106-104-292200-
NEW YORK CITY METRO AREA

CITY           SKY/WX    TMP DP  RH WIND       PRES   REMARKS
Central Park   CLOUDY    57  52  83 VRB3      30.06R
Wall St Helipt CLOUDY    59  54  82 NE6       30.04R
Bronx Bot Gard   N/A     55  50  82 S1        30.06R
LaGuardia APRT CLOUDY    57  52  83 NE10      30.02S
Kennedy INTL   CLOUDY    59  55  87 SE7       30.04R
Breezy Point     N/A     55 N/A N/A SE8         N/A
Newark/Liberty CLOUDY    60  53  77 VRB5      30.03R
Teterboro      CLOUDY    57  52  83 VRB6      30.03R
$$

NYZ177-179-078>081-292200-
LONG ISLAND NEW YORK

CITY           SKY/WX    TMP DP  RH WIND       PRES   REMARKS
Jones Beach      N/A     55 N/A N/A E9          N/A
Matinecock PT    N/A     72 N/A N/A E12         N/A
Farmingdale    LGT RAIN  55  53  93 NE6       30.03R FOG
MacArthur/ISP  CLOUDY    56  53  90 NE8       30.03R
Shirley        CLOUDY    55  54  96 VRB3      30.04R
Mt Sinai Harb    N/A    N/A N/A N/A E5          N/A
Westhampton    CLOUDY    55  52  89 NE6       30.05R
East Hampton   CLOUDY    53  51  95 E3        30.03S FOG
Montauk          N/A     54  53  97 NE6       30.05R
$$

NYZ052-065-067-292200-
HUDSON VALLEY

CITY           SKY/WX    TMP DP  RH WIND       PRES   REMARKS
White Plains   CLOUDY    54  51  90 SE8       30.03R
Larchmont Harb   N/A     54 N/A N/A NE14        N/A
Croton O-T Hud   N/A     57 N/A N/A SE5         N/A
Newburgh       CLOUDY    57  55  94 SE6       30.03R
Montgomery     CLOUDY    58  53  84 SE8       30.01S
Poughkeepsie   CLOUDY    57  52  83 E5        30.01R
Albany         CLOUDY    58  53  84 SE5       29.99R
$$

NJZ001-105-106-008-010-013-015-019>022-104-292200-
NEW JERSEY

CITY           SKY/WX    TMP DP  RH WIND       PRES   REMARKS
Newark/Liberty CLOUDY    60  53  77 VRB5      30.03R
Teterboro      CLOUDY    57  52  83 VRB6      30.03R
Caldwell       CLOUDY    58  53  84 E6        30.03R
Somerville     CLOUDY    60  53  77 S6        30.00R
Linden         CLOUDY    60  50  69 CALM      30.03R
Perth Amboy      N/A     57 N/A N/A E10         N/A
Sussex         CLOUDY    58  54  86 SE5       30.02R
Andover          N/A     57  53  86 CALM      30.01R
Trenton        CLOUDY    60  56  86 E6        30.02R
Millville      CLOUDY    63  60  90 E8        30.00R
Atlantic City  CLOUDY    61  55  81 E9        30.02R
Wrightstown    CLOUDY    60  54  81 E6        30.00R
Toms River     CLOUDY    60  53  77 E7        30.03R
Belmar         CLOUDY    57  53  86 E8        30.04R
$$

PAZ047>061-062-071-292200-
EASTERN PENNSYLVANIA

CITY           SKY/WX    TMP DP  RH WIND       PRES   REMARKS
Philadelphia   CLOUDY    64  58  80 E8        30.00S
Allentown      CLOUDY    62  55  77 S8        30.00R
Scranton       CLOUDY    62  57  83 VRB7      29.96R
$$

CTZ002-004>006-009-010-012-RIZ004-006-007-MAZ004-011-015-292200-
SOUTHERN NEW ENGLAND
 IN CT

CITY           SKY/WX    TMP DP  RH WIND       PRES   REMARKS
Bradley INTL   CLOUDY    56  52  86 SE6       30.04S
Hartford       CLOUDY    57  52  83 CALM      30.04R
Danbury        CLOUDY    55  52  89 VRB3      30.04R
Wtrbury/Oxford CLOUDY    55  48  76 SE3       30.04R
Bridgeport     CLOUDY    57  52  83 SE7       30.04R
Meriden        CLOUDY    57  51  80 E3        30.04R
New Haven      CLOUDY    57  54  89 CALM      30.04R
Chester        CLOUDY    55  54  94 NE6       30.03R
Groton         LGT RAIN  55  52  89 NE10      30.03S FOG
Wilimantic     CLOUDY    57  53  86 NE8       30.05R

 IN RI

CITY           SKY/WX    TMP DP  RH WIND       PRES   REMARKS
Providence     LGT RAIN  52  51  97 NE8       30.06R FOG
Block Island   LGT RAIN  53  51  93 NE7       30.05R
Westerly       CLOUDY    55  53  93 NE5       30.05R FOG
 IN MA

CITY           SKY/WX    TMP DP  RH WIND       PRES   REMARKS
Boston         LGT RAIN  50  49  96 NE7       30.10R
Worcester      LGT RAIN  48  46  93 NE8       30.06S FOG
Westfield      CLOUDY    54  53  97 E6        30.03S
Provincetown   CLOUDY    50  49  96 NE12      30.07R
Nantucket      CLOUDY    52  50  93 NE17      30.00R
$$

ANZ330-335-338-340-345-350-353-355-292200-
COASTAL MARINE OBSERVATIONS


STATION/POSITION TIME  SKY/WX   TEMP    WIND        PRES    VSBY  WAVE
                                AIR SEA DIR/SP/G                  HT/PER
                 (UTC)          (F)     (DEG/KT/KT) (MB)    (MI)  (FT/S)
NY HARB ENTRANCE 1950            55 57   70/ 12/ 14 1016.2          6/ 7
20 S FIRE ISLAND 2050            54 56   60/ 14/ 16 1016.2          6/ 8
GREAT SOUTH BAY  2030            57 63   60/ 10/ 12   N/A
23 SSW MONTAUK P 1950            53 54              1016.4          7/ 7
15 E BARNEGAT LI 2030               59                N/A           6/ 8
HUDSON CANYON    1950            54 54   10/ 14/ 16 1015.2          7/ 8
KINGS POINT      2036            56 59   80/  5/  8 1016.6
EXECUTION ROCKS  2045            56      70/ 10/ 14   N/A
CENTRAL LI SOUND 2015            54      80/  6/  8   N/A
EASTERN LI SOUND NOT AVBL
ROBBINS REEF     2036            58     110/  4/  6 1017.2
$$


>>>>>>>>>>>>>>>>>>>>>>>>>>>> KEY <<<<<<<<<<<<<<<<<<<<<<<<<<<
>                                                          <
>     SKY/WX - Sky Condition/Present Weather               <
>     TMP    - Temperature in Fahrenheit                   <
>     DP     - Dew Point in Fahrenheit                     <
>     RH     - Relative Humidity in Percent                <
>     WIND   - Direction (from) and Speed in MPH           <
>     PRES   - Mean Sea Level Pressure (inches of Hg)      <
>     WCI    - Wind Chill Index                            <
>     VSB    - VISIBILITY IN MILES                         <
>     HX     - HEAT INDEX                                  <
>     TC     - TEMPERATURE IN CELSIUS                      <
>     VRB    - VARIABLE WIND DIRECTION                     <
>                                                          <
>>>>>>>>>>>>>>>>>>>>>>>>>>>> KEY <<<<<<<<<<<<<<<<<<<<<<<<<<<



USA.gov is the U.S. government's official web portal to all federal, state and local government web resources and services.